sat.trackr.live / text

‹ back to catalog

STARLINK-6212

NORAD 57330 · 2023-099C

PAYLOAD ACTIVE UNKNOWN

§ Identity

Operator
Country
US
Launch date
2023-07-16
Launch site
AFETR
Launch vehicle
Mass (kg)
RCS (m²)

Purposes: comms

External: N2YO · Heavens-Above · Gunter

§ Orbital elements

Epoch: 2026-09-19T23:41:46.097376Z

Period
94.27 min
Inclination
43.0032°
Eccentricity
0.0001598
Mean motion
15.27576627 rev/d
Perigee alt
482.0 km
Apogee alt
484.2 km
Semi-major
6,861.2 km
B*
2.4688e-5
RAAN
234.9577°
Arg perigee
275.7792°
Mean anomaly
84.2878°
Rev number
17,579

§ Raw data

STARLINK-62121 57330U 23099C   26262.98733909  .00000417  00000+0  24688-4 0  99902 57330  43.0032 234.9577 0001598 275.7792  84.2878 15.27576627175795

JSON: /api/v1/satellites/57330 · /tle

For live sub-satellite position, see the globe view (requires WebGL).

§ Visibility from observer

Set your observer location to see the next 7 days of passes ≥ 10°. The values pass through the URL so the page stays shareable.

No JS? Fill the form by hand. The geolocation button needs JavaScript.